Regional Weather Roundup
Issued by NWS

Home | Current Version | Previous Version | Text Only | Print | Product List | Glossary Off
Versions: 1 2 3 4 5 6 7 8 9 10 11 12 13 14 15 16 17 18 19 20 21 22 23 24 25 26 27 28 29 30 31 32 33 34 35 36 37 38 39 40 41 42 43 44 45 46 47 48 49 50

000
ASUS43 KLOT 292204
RWRIL

ILLINOIS REGIONAL WEATHER ROUNDUP
NATIONAL WEATHER SERVICE CHICAGO/ROMEOVILLE IL
500 PM CDT MON AUG 29 2016

NOTE: "FAIR" INDICATES FEW OR NO CLOUDS BELOW 12,000 FEET WITH NO
SIGNIFICANT WEATHER AND/OR OBSTRUCTIONS TO VISIBILITY.

* THESE STATIONS ARE NOT UNDER NWS QUALITY CONTROL. THEY ALSO MAY NOT
  REPORT WEATHER SUCH AS PRECIPITATION OR FOG.

ILZ001-002-007-009-015-016-024-292300-
NORTHWEST ILLINOIS

CITY           SKY/WX    TMP DP  RH WIND       PRES   REMARKS
MOLINE         PTSUNNY   85  69  58 CALM      30.16F HX  89
STERLING*      LGT RAIN  71  69  93 SE5       30.22R
SAVANNA*       CLOUDY    77  69  77 SE18G25   30.17R
$$

ILZ003-004-008-010-011-017-018-292300-
NORTH CENTRAL ILLINOIS

CITY           SKY/WX    TMP DP  RH WIND       PRES   REMARKS
ROCKFORD       TSTM      73  69  87 E8        30.19R FOG
FREEPORT*      TSTM      72  70  92 S18       30.21R
ROCHELLE*      CLOUDY    73  69  90 SW9       30.18F
$$

ILZ005-006-012>014-019>023-292300-
NORTHEAST ILLINOIS

CITY           SKY/WX    TMP DP  RH WIND       PRES   REMARKS
CHICAGO-OHARE  CLOUDY    77  72  84 N6        30.18F
CHICAGO-MIDWAY CLOUDY    80  71  74 N8        30.18R HX  84
AURORA         CLOUDY    78  69  73 NE7       30.19R HX  80
LANSING*       PTSUNNY   82  75  79 NE5       30.17S HX  88
JOLIET*        TSTM      76  73  90 NE5       30.19R
WAUKEGAN       CLOUDY    78  70  76 E5        30.19S HX  80
DUPAGE AIRPORT CLOUDY    75  71  87 NE3       30.19R
KANKAKEE*      CLOUDY    87  72  61 E6        30.17S HX  93
WHEELING       LGT RAIN  76  72  87 CALM      30.19F
MORRIS*        PTSUNNY   81  75  82 CALM      30.17S HX  87
ROMEOVILLE*    TSTM      75  75  98 NW6       30.18S
$$

LMZ740>746-292300-
SOUTHERN LAKE MICHIGAN

STATION/POSITION SKY/WX   TEMP    WIND        PRES    VSBY  WAVE
                          AIR SEA DIR/SP/G                  HT/PER
                          (F)     (DEG/KT/KT) (MB)    (MI)  (FT/S)
SOUTHERN BUOY              77 80   20/  2/  4 1022.2          1
WILMETTE HARBOR            75 75   80/  6/  8   N/A           1/ 2
HARRISON CRIB              76      60/ 12/ 13   N/A
BURNHAM HARBOR             75     330/  5/  9   N/A
CALUMET HARBOR             77      40/  7/ 12 1021.5F
BURNS HARBOR               78      60/  8/  9 1022.4S
MICHIGAN CITY              74      30/ 10/ 11   N/A
MICHIGAN CITY 6N           77 77   40/ 10/ 14   N/A           1
ST. JOSEPH                 76 77   20/  8/ 10 1022.0F         1
$$

ILZ025>027-034>036-040-047-049-050-058-095>099-292300-
WEST-CENTRAL ILLINOIS

CITY           SKY/WX    TMP DP  RH WIND       PRES   REMARKS
QUINCY         MOSUNNY   83  72  69 N5        30.14F HX  88
MACOMB*        CLOUDY    87  73  61 N3        30.17S HX  94
JACKSONVILLE*  MOSUNNY   89  74  61 E5        30.13R HX  97
PITTSFIELD*    PTSUNNY   83  72  69 W9        30.15R THUNDER HX  89
$$

ILZ028>032-037-038-041>044-048-051>054-059>061-292300-
CENTRAL ILLINOIS

CITY           SKY/WX    TMP DP  RH WIND       PRES   REMARKS
PONTIAC        SUNNY     89  75  65 SE3       30.17S HX  99
BLOOMINGTON    MOSUNNY   86  73  65 E8        30.17S HX  93
DECATUR        SUNNY     88  72  58 E6        30.14F HX  94
PEORIA         MOSUNNY   87  74  64 E5        30.14F HX  95
LACON*         TSTM      76  67  75 W6        30.17R
LINCOLN*       SUNNY     88  74  63 E3        30.14S HX  97
SPRINGFIELD    SUNNY     90  73  57 SE6       30.13F HX  98
TAYLORVILLE    SUNNY     88  72  59 SE5       30.13S HX  94
$$

ILZ033-039-045-046-055>057-062-063-292300-
EAST-CENTRAL ILLINOIS

CITY           SKY/WX    TMP DP  RH WIND       PRES   REMARKS
CHAMPAIGN      MOSUNNY   87  74  64 E3        30.16S HX  95
RANTOUL*       SUNNY     89  74  62 SE5       30.16S HX  98
MATTOON        SUNNY     87  71  58 E5        30.14F HX  93
PARIS*         SUNNY     87  74  65 CALM      30.15F HX  96
$$

ILZ079-100>102-292300-
SOUTHWEST ILLINOIS

CITY           SKY/WX    TMP DP  RH WIND       PRES   REMARKS
ALTON          MOSUNNY   90  73  58 E6        30.11  HX  98
BELLEVILLE     SUNNY     90  73  58 E6        30.09F HX  98
CAHOKIA*       MOSUNNY   91  72  53 E7        30.09F HX  98
SPARTA*        SUNNY     89  73  60 E6        30.11F HX  97
$$

ILZ064>066-069>071-074>076-080>082-084>086-088>090-092>094-292300-
SOUTH-CENTRAL ILLINOIS

CITY           SKY/WX    TMP DP  RH WIND       PRES   REMARKS
CARBONDALE     SUNNY     88  73  61 E6        30.10F HX  95
EFFINGHAM*     SUNNY     88  75  65 E3        30.14F HX  97
MARION         SUNNY     91  72  52 NE6       30.11F HX  98
MT. VERNON     SUNNY     90  70  51 E7        30.12S HX  95
SALEM*         SUNNY     89  75  62 E6        30.12F HX  99
METROPOLIS*    SUNNY     91  73  55 E5        30.09F HX 100
$$

ILZ067-068-072-073-078-083-087-091-292300-
SOUTHEAST ILLINOIS

CITY           SKY/WX    TMP DP  RH WIND       PRES   REMARKS
LAWRENCEVILLE  SUNNY     89  71  55 NE6       30.13F HX  95
FLORA*         SUNNY     90  71  53 E5        30.12F HX  96
FAIRFIELD*     SUNNY     88  73  60 CALM      30.11S HX  96
HARRISBURG*    SUNNY     91  71  53 CALM      30.10F HX  97
ROBINSON*      SUNNY     87  73  64 NE5       30.14F HX  94
CARMI*         SUNNY     90  73  57 NE5       30.10F HX  97
$$

ABBREVIATIONS USED IN REMARKS
   TC - TEMPERATURE IN CELSIUS
  WCI - WIND CHILL INDEX
   HX - HEAT INDEX
  VSB - VISIBILITY
$$





USA.gov is the U.S. government's official web portal to all federal, state and local government web resources and services.